EW7806 Weather Reports


time (UTC)temp
C
wind
direction
speed
KPH
gust
KPH
rain 1hr
cm
rain 24hr
cm
rain mn
cm
humidity
%
barometer
mb
20260507013607 6 44 0.0 0.0 0.00 0.00 0.00 89 1014.1
20260507013115 6 44 0.0 0.0 0.00 0.00 0.00 89 1014.1
20260507012611 6 44 0.0 0.0 0.00 0.00 0.00 89 1014.1
20260507012107 6 44 0.0 0.0 0.00 0.00 0.00 89 1014.1
20260507011606 6 44 0.0 0.0 0.00 0.00 0.00 89 1014.1
20260507010605 6 44 0.0 0.0 0.00 0.00 0.00 89 1014.1
20260507010108 6 44 0.0 0.0 0.00 0.00 0.00 89 1014.1
20260507005534 6 44 0.0 0.0 0.00 0.00 0.00 89 1014.0
20260507005032 6 44 0.0 0.0 0.00 0.00 0.00 89 1014.0
20260507004535 6 44 0.0 0.0 0.00 0.00 0.00 89 1014.0
20260507004031 6 44 0.0 0.0 0.00 0.00 0.00 89 1014.0
20260507003522 6 44 0.0 0.0 0.00 0.00 0.00 89 1013.9
20260507003022 6 44 0.0 0.0 0.00 0.00 0.00 89 1013.9
20260507002516 6 44 0.0 0.0 0.00 0.00 0.00 89 1014.0
20260507002022 7 44 0.0 0.0 0.00 0.00 0.00 89 1014.0
20260507001523 7 44 0.0 0.0 0.00 0.00 0.00 89 1014.0
20260507001020 7 44 0.0 0.0 0.00 0.00 0.00 89 1014.0
20260507000520 7 44 0.0 0.0 0.00 0.00 0.00 88 1014.1
20260507000028 7 44 0.0 0.0 0.00 0.00 0.00 88 1014.1
20260506235520 7 44 0.0 0.0 0.00 0.00 0.00 88 1014.1
20260506234520 7 44 0.0 0.0 0.00 0.00 0.00 88 1014.2
20260506234013 7 44 0.0 0.0 0.00 0.00 0.00 88 1014.1
20260506233031 7 44 0.0 0.0 0.00 0.00 0.00 88 1014.0
20260506232512 7 44 0.0 0.0 0.00 0.00 0.00 88 1014.0
20260506232026 7 44 0.0 0.0 0.00 0.00 0.00 87 1014.0
20260506231022 7 44 0.0 0.0 0.00 0.00 0.00 87 1014.0
20260506230517 7 44 0.0 0.0 0.00 0.00 0.00 87 1013.9
20260506230028 7 44 0.0 0.0 0.00 0.00 0.00 87 1013.9
20260506225520 7 44 0.0 0.0 0.00 0.00 0.00 87 1013.9
20260506225024 7 44 0.0 0.0 0.00 0.00 0.00 86 1013.9
20260506224520 7 44 0.0 0.0 0.00 0.00 0.00 86 1013.8
20260506224022 7 44 0.0 0.0 0.00 0.00 0.00 86 1013.8
20260506223012 7 44 0.0 0.0 0.00 0.00 0.00 87 1013.8
20260506222505 8 44 0.0 0.0 0.00 0.00 0.00 86 1013.8
20260506221947 8 44 0.0 0.0 0.00 0.00 0.00 86 1013.8
20260506221434 8 44 0.0 0.0 0.00 0.00 0.00 86 1013.8
20260506220925 8 44 0.0 0.0 0.00 0.00 0.00 86 1013.7
20260506220413 8 44 0.0 0.0 0.00 0.00 0.00 86 1013.6
20260506215905 8 44 0.0 0.0 0.00 0.00 0.00 86 1013.5
20260506215407 8 44 0.0 0.0 0.00 0.00 0.00 86 1013.5
20260506214409 8 43 0.0 0.0 0.00 0.00 0.00 86 1013.5
20260506213908 8 43 0.0 0.0 0.00 0.00 0.00 86 1013.5
20260506213407 8 42 0.0 0.0 0.00 0.00 0.00 86 1013.4
20260506212905 8 42 0.0 0.0 0.00 0.00 0.00 86 1013.4
20260506211910 8 42 0.0 0.0 0.00 0.00 0.00 85 1013.4
20260506210904 9 84 0.0 0.0 0.00 0.00 0.00 85 1013.4
20260506210404 9 50 0.0 0.0 0.00 0.00 0.00 85 1013.3
20260506205843 9 49 0.0 1.6 0.00 0.00 0.00 85 1013.3
20260506205340 9 49 0.0 1.6 0.00 0.00 0.00 84 1013.3
20260506204332 9 103 0.0 1.6 0.00 0.00 0.00 84 1013.2
20260506203832 9 110 0.0 1.6 0.00 0.00 0.00 83 1013.2
20260506203332 9 77 0.0 0.0 0.00 0.00 0.00 83 1013.2
20260506201833 10 216 0.0 0.0 0.00 0.00 0.00 82 1013.1
20260506201332 10 163 0.0 1.6 0.00 0.00 0.00 82 1013.1
20260506200831 10 194 0.0 1.6 0.00 0.00 0.00 81 1013.1
20260506200338 10 30 0.0 1.6 0.00 0.00 0.00 80 1012.9
20260506195815 10 55 0.0 1.6 0.00 0.00 0.00 80 1012.9
20260506195306 10 353 0.0 0.0 0.00 0.00 0.00 79 1012.8
20260506194810 10 45 0.0 1.6 0.00 0.00 0.00 79 1012.8
20260506194234 10 53 0.0 1.6 0.00 0.00 0.00 79 1012.7
20260506193242 10 219 0.0 3.2 0.00 0.00 0.00 77 1012.6
20260506192733 10 323 0.0 4.8 0.00 0.00 0.00 77 1012.6
20260506192232 10 243 0.0 4.8 0.00 0.00 0.00 77 1012.5
20260506191733 11 37 0.0 1.6 0.00 0.00 0.00 76 1012.4
20260506191212 11 64 0.0 4.8 0.00 0.00 0.00 75 1012.3
20260506190709 11 275 0.0 4.8 0.00 0.00 0.00 75 1012.3
20260506190207 11 28 0.0 4.8 0.00 0.00 0.00 74 1012.2
20260506185705 11 116 0.0 4.8 0.00 0.00 0.00 73 1012.1
20260506185203 11 77 0.0 6.4 0.00 0.00 0.00 72 1012.1
20260506184708 11 31 0.0 6.4 0.00 0.00 0.00 71 1012.1
20260506184205 11 55 0.0 1.6 0.00 0.00 0.00 71 1012.0
20260506183710 11 259 0.0 1.6 0.00 0.00 0.00 71 1012.0
20260506183205 12 212 0.0 3.2 0.00 0.00 0.00 69 1011.9
20260506182631 12 27 0.0 4.8 0.00 0.00 0.00 68 1011.9
20260506182134 12 23 0.0 4.8 0.00 0.00 0.00 66 1011.9
20260506181636 12 38 0.0 4.8 0.00 0.00 0.00 66 1011.7
20260506181103 12 148 0.0 6.4 0.00 0.00 0.00 66 1011.8
20260506180609 12 98 0.0 3.2 0.00 0.00 0.00 66 1011.7
20260506180106 12 75 0.0 3.2 0.00 0.00 0.00 65 1011.6
20260506175606 12 321 0.0 6.4 0.00 0.00 0.00 64 1011.6
20260506175108 13 64 0.0 6.4 0.00 0.00 0.00 64 1011.5
20260506174045 13 34 0.0 6.4 0.00 0.00 0.00 63 1011.3
20260506173534 13 32 0.0 3.2 0.00 0.00 0.00 61 1011.3
20260506173038 13 45 0.0 6.4 0.00 0.00 0.00 61 1011.3
20260506172538 13 19 0.0 6.4 0.00 0.00 0.00 62 1011.2
20260506172033 13 120 0.0 6.4 0.00 0.00 0.00 60 1011.2
20260506171523 13 262 0.0 4.8 0.00 0.00 0.00 61 1011.1
20260506171024 13 240 0.0 4.8 0.00 0.00 0.00 60 1011.1
20260506170521 13 148 0.0 4.8 0.00 0.00 0.00 59 1011.1
20260506170017 13 172 0.0 6.4 0.00 0.00 0.00 59 1011.1
20260506165516 13 47 0.0 6.4 0.00 0.00 0.00 60 1011.0
20260506165024 13 271 1.6 6.4 0.00 0.00 0.00 61 1011.0
20260506164514 13 271 1.6 6.4 0.00 0.00 0.00 61 1011.0
20260506164022 13 250 1.6 6.4 0.00 0.00 0.00 61 1011.0
20260506163023 13 37 0.0 12.9 0.00 0.00 0.00 62 1010.9
20260506162457 13 136 0.0 4.8 0.00 0.00 0.00 62 1010.9
20260506161953 13 257 0.0 4.8 0.00 0.00 0.00 61 1010.8
20260506161452 13 18 0.0 4.8 0.00 0.00 0.00 61 1010.9
20260506160952 14 11 0.0 4.8 0.00 0.00 0.00 62 1010.9
20260506160446 14 129 0.0 3.2 0.00 0.00 0.00 63 1010.9
20260506155935 14 277 1.6 11.3 0.00 0.00 0.00 64 1010.9
20260506154431 14 10 1.6 9.7 0.00 0.00 0.00 64 1010.9
20260506153932 14 39 1.6 9.7 0.00 0.00 0.00 63 1010.8
20260506153435 14 341 0.0 3.2 0.00 0.00 0.00 66 1010.7
20260506152934 14 33 0.0 4.8 0.00 0.00 0.00 66 1010.8
20260506152432 15 113 0.0 4.8 0.00 0.00 0.00 65 1010.7
20260506151933 14 162 0.0 3.2 0.00 0.00 0.00 66 1010.6
20260506151405 14 52 0.0 8.0 0.00 0.00 0.00 67 1010.6
20260506150907 14 16 0.0 8.0 0.00 0.00 0.00 66 1010.6
20260506150406 14 337 0.0 4.8 0.00 0.00 0.00 65 1010.7
20260506145408 15 250 0.0 8.0 0.00 0.00 0.00 63 1010.7
20260506144407 15 157 0.0 9.7 0.00 0.00 0.00 63 1010.6
20260506143404 15 5 0.0 6.4 0.00 0.00 0.00 60 1010.5
20260506142405 15 49 0.0 9.7 0.00 0.00 0.00 62 1010.4
20260506141911 15 139 0.0 9.7 0.00 0.00 0.00 63 1010.5
20260506141348 15 319 0.0 9.7 0.00 0.00 0.00 63 1010.5
20260506140340 15 332 0.0 6.4 0.00 0.00 0.00 62 1010.5
20260506135818 15 50 0.0 8.0 0.00 0.00 0.00 62 1010.5
20260506134813 15 167 0.0 3.2 0.00 0.00 0.00 63 1010.5
20260506134303 15 55 0.0 3.2 0.00 0.00 0.00 62 1010.4
20260506133804 15 50 0.0 6.4 0.00 0.00 0.00 62 1010.5
20260506133307 15 46 1.6 8.0 0.00 0.00 0.00 59 1010.5
20260506132806 15 90 1.6 8.0 0.00 0.00 0.00 61 1010.5
20260506132306 15 36 0.0 8.0 0.00 0.00 0.00 62 1010.4
20260506131235 16 283 0.0 6.4 0.00 0.00 0.00 60 1010.2
20260506130732 16 37 0.0 6.4 0.00 0.00 0.00 62 1010.3
20260506130235 16 248 0.0 6.4 0.00 0.00 0.00 59 1010.3
20260506125708 16 314 0.0 6.4 0.00 0.00 0.00 62 1010.3
20260506125207 16 79 0.0 6.4 0.00 0.00 0.00 63 1010.3
20260506124708 16 89 0.0 6.4 0.00 0.00 0.00 63 1010.3
20260506124206 16 90 0.0 6.4 0.00 0.00 0.00 67 1010.2
20260506123703 15 224 1.6 6.4 0.00 0.00 0.00 67 1010.3
20260506122633 15 165 0.0 6.4 0.00 0.00 0.00 69 1010.3
20260506121632 14 308 0.0 6.4 0.00 0.00 0.00 70 1010.2
20260506121105 14 32 0.0 6.4 0.00 0.00 0.00 69 1010.2
20260506120106 13 51 0.0 1.6 0.00 0.00 0.00 70 1010.2
20260506115603 14 297 0.0 6.4 0.00 0.00 0.00 69 1010.2
20260506115104 14 188 0.0 6.4 0.00 0.00 0.00 70 1010.2
20260506114610 14 13 0.0 4.8 0.00 0.00 0.00 68 1010.2
20260506114102 14 293 0.0 4.8 0.00 0.00 0.00 67 1010.3
20260506113602 14 259 0.0 4.8 0.00 0.00 0.00 67 1010.2
20260506113107 14 249 0.0 4.8 0.00 0.00 0.00 67 1010.2
20260506112536 14 248 0.0 4.8 0.00 0.00 0.00 67 1010.2
20260506111531 15 238 0.0 4.8 0.00 0.00 0.00 66 1010.1
20260506111037 15 241 0.0 6.4 0.00 0.00 0.00 65 1010.1
20260506110539 16 66 0.0 6.4 0.00 0.00 0.00 63 1010.1
20260506110026 16 31 0.0 6.4 0.00 0.00 0.00 63 1010.1
20260506105521 16 250 0.0 6.4 0.00 0.00 0.00 66 1010.1
20260506105022 15 315 0.0 1.6 0.00 0.00 0.00 65 1010.1
20260506104507 15 285 0.0 4.8 0.00 0.00 0.00 65 1010.1
20260506104008 15 29 0.0 4.8 0.00 0.00 0.00 67 1010.1
20260506102504 14 44 0.0 6.4 0.00 0.00 0.00 69 1010.0
20260506102001 13 50 0.0 3.2 0.00 0.00 0.00 71 1010.1
20260506100456 13 103 0.0 3.2 0.00 0.00 0.00 75 1010.0
20260506095934 13 76 0.0 6.4 0.00 0.00 0.00 76 1010.0
20260506095436 13 30 0.0 6.4 0.00 0.00 0.00 76 1010.1
20260506094934 13 145 0.0 4.8 0.00 0.00 0.00 76 1010.0
20260506093912 13 21 0.0 4.8 0.00 0.00 0.00 74 1010.1
20260506093410 13 255 0.0 1.6 0.00 0.00 0.00 76 1010.0
20260506092910 13 113 0.0 3.2 0.00 0.00 0.00 76 1009.9
20260506092407 13 82 0.0 8.0 0.00 0.00 0.00 76 1009.9
20260506091406 13 34 0.0 4.8 0.00 0.00 0.00 75 1009.9
20260506090905 13 37 0.0 4.8 0.00 0.00 0.00 75 1009.8
20260506085833 13 50 0.0 4.8 0.00 0.00 0.00 72 1009.8
20260506085331 13 288 0.0 4.8 0.00 0.00 0.00 71 1009.9
20260506084833 13 26 0.0 3.2 0.00 0.00 0.00 73 1009.8
20260506084331 13 327 0.0 3.2 0.00 0.00 0.00 74 1009.7
20260506083333 13 81 0.0 3.2 0.00 0.00 0.00 78 1009.7
20260506082835 12 304 0.0 4.8 0.00 0.00 0.00 78 1009.7
20260506082331 12 63 0.0 4.8 0.00 0.00 0.00 78 1009.7
20260506080830 12 67 0.0 3.2 0.00 0.00 0.00 78 1009.7
20260506080355 12 67 0.0 4.8 0.00 0.00 0.00 78 1009.6
20260506073233 11 21 0.0 1.6 0.00 0.00 0.00 81 1009.6
20260506072733 11 49 0.0 1.6 0.00 0.00 0.00 81 1009.6
20260506071732 11 97 0.0 3.2 0.00 0.00 0.00 82 1009.5
20260506071207 11 39 0.0 3.2 0.00 0.00 0.00 82 1009.5
20260506070706 11 65 0.0 3.2 0.00 0.00 0.00 82 1009.5
20260506061613 11 70 0.0 4.8 0.00 0.00 0.00 85 1009.2
20260506061106 11 355 0.0 4.8 0.00 0.00 0.00 85 1009.2
20260506060607 11 6 0.0 1.6 0.00 0.00 0.00 85 1009.1
20260506060109 11 53 0.0 3.2 0.00 0.00 0.00 86 1009.2
20260506051024 10 263 0.0 4.8 0.00 0.00 0.00 86 1009.1
20260506050522 10 66 0.0 3.2 0.00 0.00 0.00 86 1009.2
20260506045023 10 62 0.0 3.2 0.00 0.00 0.00 86 1009.3
20260506044517 10 84 0.0 1.6 0.00 0.00 0.00 86 1009.2
20260506044011 10 57 0.0 1.6 0.00 0.00 0.00 86 1009.4
20260506043505 10 44 0.0 1.6 0.00 0.00 0.00 86 1009.3
20260506043001 10 70 0.0 1.6 0.00 0.00 0.00 86 1009.2
20260506041951 10 136 0.0 0.0 0.00 0.00 0.00 86 1009.2
20260506041436 10 68 0.0 1.6 0.00 0.00 0.00 86 1009.3
20260506040434 10 75 0.0 0.0 0.00 0.00 0.00 86 1009.3
20260506035932 10 75 0.0 0.0 0.00 0.00 0.00 86 1009.4
20260506035432 10 88 0.0 1.6 0.00 0.00 0.00 86 1009.4
20260506034934 10 259 0.0 3.2 0.00 0.00 0.00 86 1009.4
20260506034407 10 226 0.0 1.6 0.00 0.00 0.00 86 1009.4
20260506033906 10 236 0.0 1.6 0.00 0.00 0.00 86 1009.4
20260506033404 10 89 0.0 0.0 0.00 0.00 0.00 86 1009.4
20260506032851 10 91 0.0 1.6 0.00 0.00 0.00 86 1009.5
20260506032336 10 245 0.0 1.6 0.00 0.00 0.00 86 1009.5
20260506031323 10 93 0.0 1.6 0.00 0.00 0.00 86 1009.6
20260506030816 10 58 0.0 1.6 0.00 0.00 0.00 86 1009.6
20260506030308 10 49 0.0 0.0 0.00 0.00 0.00 86 1009.6
20260506025804 10 39 0.0 1.6 0.00 0.00 0.00 86 1009.7
20260506025306 10 137 0.0 1.6 0.00 0.00 0.00 86 1009.7
20260506024243 10 71 0.0 1.6 0.00 0.00 0.00 86 1009.7
20260506023739 10 239 0.0 1.6 0.00 0.00 0.00 85 1009.7
20260506023234 10 240 0.0 1.6 0.00 0.00 0.00 85 1009.7
20260506022724 10 51 0.0 0.0 0.00 0.00 0.00 85 1009.8
20260506022215 10 34 0.0 1.6 0.00 0.00 0.00 85 1009.7
20260506021709 10 260 0.0 1.6 0.00 0.00 0.00 85 1009.8
20260506021207 10 258 0.0 1.6 0.00 0.00 0.00 85 1009.8
20260506020710 10 110 0.0 1.6 0.00 0.00 0.00 86 1009.8
20260506020213 10 245 0.0 1.6 0.00 0.00 0.00 86 1009.9
20260506015637 10 113 0.0 1.6 0.00 0.00 0.00 86 1009.9
20260506015135 10 54 0.0 1.6 0.00 0.00 0.00 86 1009.9
20260506014609 9 61 0.0 1.6 0.00 0.00 0.00 87 1009.9
20260506014108 9 249 0.0 1.6 0.00 0.00 0.00 87 1010.0